Regional Weather Roundup
Issued by NWS

Home | Current Version | Previous Version | Graphics & Text | Print | Product List | Glossary Off
Versions: 1 2 3 4 5 6 7 8 9 10 11 12 13 14 15 16 17 18 19 20 21 22 23 24 25 26 27 28 29 30 31 32 33 34 35 36 37 38 39 40 41 42 43 44 45 46 47 48 49 50

143
ASUS43 KMKX 200010
RWRWI

WISCONSIN REGIONAL WEATHER ROUNDUP
NATIONAL WEATHER SERVICE MILWAUKEE/SULLIVAN WI
700 PM CDT THU APR 19 2018

NOTE: "FAIR" INDICATES FEW OR NO CLOUDS BELOW 12,000 FEET WITH NO
SIGNIFICANT WEATHER AND/OR OBSTRUCTIONS TO VISIBILITY.

WIZ001-002-006>008-014>016-023>028-200100-
NORTHWEST WISCONSIN

CITY           SKY/WX    TMP DP  RH WIND       PRES   REMARKS
SUPERIOR ARPT  FAIR      56  13  18 CALM      30.38S
6HR MIN TEMP:  52; 6HR MAX TEMP:  58;

ASHLAND        FAIR      52  12  20 CALM      30.40S
6HR MIN TEMP:  47; 6HR MAX TEMP:  55;

HAYWARD        FAIR      53  13  20 VRB3      30.39S
6HR MIN TEMP:  49; 6HR MAX TEMP:  54;

SIREN          FAIR      50  19  29 W9        30.41S
6HR MIN TEMP:  50; 6HR MAX TEMP:  54;

CUMBERLAND     FAIR      41  23  48 SW7       30.41S
RICE LAKE      FAIR      49  17  28 SW5       30.43R
6HR MIN TEMP:  46; 6HR MAX TEMP:  50;

CHETEK         FAIR      49  17  27 CALM      30.42S
6HR MIN TEMP:  46; 6HR MAX TEMP:  51;

LADYSMITH      FAIR      50  16  25 W5        30.42S
6HR MIN TEMP:  47; 6HR MAX TEMP:  53;

EAU CLAIRE     FAIR      48  20  32 W3        30.42S
6HR MIN TEMP:  45; 6HR MAX TEMP:  51;

MENOMONIE      FAIR      50  16  25 W5        30.43S
6HR MIN TEMP:  46; 6HR MAX TEMP:  51;

NEW RICHMOND   FAIR      48  17  28 NW3       30.44R
6HR MIN TEMP:  45; 6HR MAX TEMP:  49;

OSCEOLA        FAIR      50  16  25 CALM      30.46S
6HR MIN TEMP:  48; 6HR MAX TEMP:  52;

$$

WIZ003>005-009-010-017-018-200100-
NORTH CENTRAL WISCONSIN

CITY           SKY/WX    TMP DP  RH WIND       PRES   REMARKS
MANITOWISH WTR FAIR      47   6  18 N6        30.39R
6HR MIN TEMP:  45; 6HR MAX TEMP:  49;

ARBOR VITAE    FAIR      46  11  24 N6        30.38S
6HR MIN TEMP:  46; 6HR MAX TEMP:  52;

WOODRUFF       FAIR      46  11  24 N6        30.38S
6HR MIN TEMP:  46; 6HR MAX TEMP:  52;

RHINELANDER    NOT AVBL
EAGLE RIVER    FAIR      47   8  20 N8        30.37S
6HR MIN TEMP:  47; 6HR MAX TEMP:  50;

LAND O LAKES   FAIR      46  10  23 N5        30.40R
6HR MIN TEMP:  46; 6HR MAX TEMP:  49;

PHILLIPS       FAIR      51  11  20 CALM      30.38R
6HR MIN TEMP:  46; 6HR MAX TEMP:  52;

TOMAHAWK       FAIR      50   4  15 N5        30.38S
6HR MIN TEMP:  49; 6HR MAX TEMP:  53;

MEDFORD        FAIR      47  16  29 W8        30.38S
6HR MIN TEMP:  45; 6HR MAX TEMP:  49;

MERRILL          N/A     53   9  17 N6        30.37S
6HR MIN TEMP:  49; 6HR MAX TEMP:  55;

$$

WIZ029-030-035-036-043>047-200100-
CENTRAL WISCONSIN

CITY           SKY/WX    TMP DP  RH WIND       PRES   REMARKS
WAUSAU         FAIR      47  21  35 W8        30.37R
6HR MIN TEMP:  46; 6HR MAX TEMP:  51;

MOSINEE        PTCLDY    45  21  39 W7        30.40S
MARSHFIELD     FAIR      45  21  38 W8        30.39S
6HR MIN TEMP:  41; 6HR MAX TEMP:  47;

STEVENS POINT  FAIR      46  19  33 W6        30.40S
6HR MIN TEMP:  46; 6HR MAX TEMP:  48;

WAUPACA        FAIR      50  19  29 W9        30.39S
6HR MIN TEMP:  50; 6HR MAX TEMP:  55;

WAUTOMA        FAIR      47  19  33 W9        30.40F
6HR MIN TEMP:  44; 6HR MAX TEMP:  49;

WISC RAPIDS    FAIR      49  17  28 W8        30.41S
6HR MIN TEMP:  46; 6HR MAX TEMP:  49; 6HR PCP:  0.01;

CAMP DOUGLAS   FAIR      46  23  39 W8        30.41F
6HR MIN TEMP:  43; 6HR MAX TEMP:  49;

$$

WIZ011>013-019>022-031-037>040-048>050-200100-
NORTHEAST WISCONSIN

CITY           SKY/WX    TMP DP  RH WIND       PRES   REMARKS
ANTIGO         FAIR      44  17  34 N6        30.37S
6HR MIN TEMP:  44; 6HR MAX TEMP:  50;

SHAWANO        FAIR      52  15  23 SE5       30.36S
6HR MIN TEMP:  52; 6HR MAX TEMP:  60;

OCONTO         FAIR      45  11  25 E5        30.37S
6HR MIN TEMP:  45; 6HR MAX TEMP:  54;

STURGEON BAY   FAIR      48  12  23 CALM      30.38R
6HR MIN TEMP:  44; 6HR MAX TEMP:  51;

GREEN BAY      FAIR      45  24  43 CALM      30.37S
6HR MIN TEMP:  43; 6HR MAX TEMP:  52;

MANITOWOC      FAIR      47  22  37 W6        30.39R
6HR MIN TEMP:  43; 6HR MAX TEMP:  49;

APPLETON       PTCLDY    46  18  31 W10       30.36S
CLINTONVILLE   FAIR      50  19  29 W9        30.36R
6HR MIN TEMP:  50; 6HR MAX TEMP:  54;

OSHKOSH        FAIR      47  22  37 W3        30.38S
6HR MIN TEMP:  43; 6HR MAX TEMP:  50;

$$

WIZ032>034-041-042-053>061-200100-
SOUTHWEST WISCONSIN

CITY           SKY/WX    TMP DP  RH WIND       PRES   REMARKS
LA CROSSE      FAIR      50  24  36 W5        30.44S
6HR MIN TEMP:  44; 6HR MAX TEMP:  51;

SPARTA         FAIR      47  21  34 NW5       30.44S
6HR MIN TEMP:  44; 6HR MAX TEMP:  49;

VIROQUA        FAIR      43  24  48 CALM      30.43S
6HR MIN TEMP:  41; 6HR MAX TEMP:  45;

BOSCOBEL       FAIR      50  25  37 NW6       30.45R
6HR MIN TEMP:  46; 6HR MAX TEMP:  51;

PRAIRIE DU CHI FAIR      47  23  39 NW7       30.44S
6HR MIN TEMP:  43; 6HR MAX TEMP:  48; 6HR PCP:  0.01;

PLATTEVILLE    FAIR      47  31  53 N7        30.43S
6HR MIN TEMP:  43; 6HR MAX TEMP:  50;

$$

WIZ056-057-062-063-064-067-068-200100-
SOUTH CENTRAL WISCONSIN

CITY           SKY/WX    TMP DP  RH WIND       PRES   REMARKS
REEDSBURG      FAIR      46  23  41 W7        30.42S
6HR MIN TEMP:  43; 6HR MAX TEMP:  47;

BARABOO/DELLS  FAIR      46  22  37 W3        30.41F
6HR MIN TEMP:  44; 6HR MAX TEMP:  48;

LONE ROCK      FAIR      48  24  39 W5        30.43F
6HR MIN TEMP:  42; 6HR MAX TEMP:  50;

MINERAL POINT  FAIR      46  25  42 NW6       30.42F
MADISON        FAIR      47  24  40 VRB3      30.42S
6HR MIN TEMP:  42; 6HR MAX TEMP:  49;

MIDDLETON      FAIR      45  30  55 NW5       30.42F
6HR MIN TEMP:  44; 6HR MAX TEMP:  49;

WATERTOWN      FAIR      45  26  47 W5        30.41F
6HR MIN TEMP:  40; 6HR MAX TEMP:  46;

MONROE         FAIR      46  23  39 N6        30.41F
JANESVILLE     CLEAR     50  18  27 NW3       30.42S
$$

WIZ051-052-058>065-066-070>072-200100-
SOUTHEAST WISCONSIN

CITY           SKY/WX    TMP DP  RH WIND       PRES   REMARKS
MILWAUKEE      FAIR      49  23  36 W12       30.41S
6HR MIN TEMP:  45; 6HR MAX TEMP:  50;

WAUKESHA       CLEAR     43  25  49 W7        30.42S
MILWAUKEE/TIMM CLEAR     45  21  39 W8        30.42S
RACINE         FAIR      47  22  37 NW8       30.42S
6HR MIN TEMP:  44; 6HR MAX TEMP:  49;

BURLINGTON     FAIR      44  25  46 NW5       30.42S
6HR MIN TEMP:  41; 6HR MAX TEMP:  46;

KENOSHA        FAIR      47  23  38 NW8       30.41S
6HR MIN TEMP:  43; 6HR MAX TEMP:  49;

FOND DU LAC    FAIR      48  24  39 SW5       30.39S
6HR MIN TEMP:  43; 6HR MAX TEMP:  48;

SHEBOYGAN      FAIR      45  28  51 W6        30.38S
6HR MIN TEMP:  43; 6HR MAX TEMP:  49;

WEST BEND      FAIR      45  27  49 W6        30.40S
JUNEAU         FAIR      41  27  57 SW3       30.41F
6HR MIN TEMP:  39; 6HR MAX TEMP:  46;

$$

LSZ147-162-200100-
LAKE SUPERIOR

STATION/POSITION TIME  TEMP    WIND        PRES    WAVE
                       AIR SEA DIR/SP/G            HT/PER
                 (UTC) (F)     (DEG/KT/KT) (MB)    (FT/S)
DEVILS ISLAND    0000   48     170/  7/ 11 1029.4R
SAXON HARBOR     2340   45      CALM  /  1 1028.8F
$$

LMZ867-665-643>646-200100-
LAKE MICHIGAN

STATION/POSITION TIME  TEMP    WIND        PRES    WAVE
                       AIR SEA DIR/SP/G            HT/PER




USA.gov is the U.S. government's official web portal to all federal, state and local government web resources and services.